User: anonymous   Login
Location: Unspecified
(0.0000°N, 0.0000°E)
Time: 11:03:15
(UTC+00:00)
Language:

Milstar 3 - Orbit

View from above orbital plane
View from above orbital plane
View from above satellite
View from above satellite

Ground track
Ground track

The orbit data is extracted from the following two-line orbital elements,

1 25724U 99023A   18296.99353520 0.00000000  00000-0  00000-0 0    08
2 25724  28.2178 184.9366 2134851  94.4800 265.5195  9.37458570    07
Epoch (UTC): 23 October 2018 23:50:41
Eccentricity: 0.2134851
inclination: 28.2178°
perigee height: 1094 km
apogee height: 5151 km
right ascension of ascending node: 184.9366°
argument of perigee: 94.4800°
revolutions per day: 9.37458570
mean anomaly at epoch: 265.5195°
orbit number at epoch: 0

The dashed part of the orbit path shows where the satellite is in the earth's shadow,  

DLR